TimePDT,TemperatureF,Dew PointF,Humidity,Sea Level PressureIn,VisibilityMPH,Wind Direction,Wind SpeedMPH,Gust SpeedMPH,PrecipitationIn,Events,Conditions,WindDirDegrees,DateUTC
12:58 AM,29.8,16.0,56,30.21,10.0,NNE,6.9,-,N/A,,Clear,30,2013-03-25 07:58:00
1:58 AM,27.7,17.2,65,30.21,10.0,NNE,8.1,-,N/A,,Clear,30,2013-03-25 08:58:00
2:58 AM,25.2,17.6,73,30.20,10.0,NE,5.8,-,N/A,,Clear,40,2013-03-25 09:58:00
3:58 AM,24.6,17.4,74,30.19,10.0,NNE,8.1,-,N/A,,Clear,30,2013-03-25 10:58:00
4:58 AM,24.4,17.2,74,30.19,10.0,NE,6.9,-,N/A,,Clear,40,2013-03-25 11:58:00
5:58 AM,22.8,17.1,79,30.20,10.0,NE,8.1,-,N/A,,Clear,40,2013-03-25 12:58:00
6:58 AM,25.3,16.7,70,30.20,10.0,NNE,9.2,-,N/A,,Clear,30,2013-03-25 13:58:00
7:58 AM,27.7,20.3,74,30.19,10.0,NNE,8.1,-,N/A,,Clear,30,2013-03-25 14:58:00
8:58 AM,31.5,20.5,64,30.18,10.0,NNE,6.9,-,N/A,,Clear,20,2013-03-25 15:58:00
9:58 AM,35.1,21.0,57,30.18,10.0,NNE,10.4,-,N/A,,Partly Cloudy,30,2013-03-25 16:58:00
10:58 AM,36.9,21.9,55,30.18,10.0,NNE,8.1,-,N/A,,Overcast,30,2013-03-25 17:58:00
11:58 AM,40.1,23.4,51,30.17,10.0,NE,8.1,-,N/A,,Overcast,40,2013-03-25 18:58:00
12:58 PM,43.7,24.6,47,30.14,10.0,Variable,5.8,-,N/A,,Clear,0,2013-03-25 19:58:00
1:58 PM,45.5,25.0,45,30.11,10.0,Variable,2.3,-,N/A,,Scattered Clouds,0,2013-03-25 20:58:00
2:58 PM,47.5,25.2,42,30.09,10.0,East,5.8,-,N/A,,Mostly Cloudy,90,2013-03-25 21:58:00
3:58 PM,48.2,26.8,43,30.07,10.0,ESE,6.9,-,N/A,,Partly Cloudy,120,2013-03-25 22:58:00
4:58 PM,48.6,27.1,43,30.06,10.0,ESE,4.6,-,N/A,,Scattered Clouds,120,2013-03-25 23:58:00
5:58 PM,47.8,27.0,44,30.04,10.0,East,5.8,-,N/A,,Partly Cloudy,80,2013-03-26 00:58:00
6:58 PM,44.4,28.9,55,30.04,10.0,NE,5.8,-,N/A,,Partly Cloudy,50,2013-03-26 01:58:00
7:58 PM,42.3,27.1,55,30.04,10.0,NNE,5.8,-,N/A,,Clear,20,2013-03-26 02:58:00
8:58 PM,40.3,26.2,57,30.03,10.0,North,6.9,-,N/A,,Clear,10,2013-03-26 03:58:00
9:58 PM,39.0,26.2,60,30.03,10.0,NNE,2.3,-,N/A,,Clear,30,2013-03-26 04:58:00
10:58 PM,36.7,25.2,63,30.04,10.0,NNE,5.8,-,N/A,,Clear,20,2013-03-26 05:58:00
11:58 PM,36.9,24.6,61,30.02,10.0,NNE,5.8,-,N/A,,Clear,30,2013-03-26 06:58:00